• In Russia
  • List of Countries
  • For 7 days
  • Water Temperature
  • Satellite Maps
  • Weather Map
  • Weather Widgets
  • user-avatar
    Login

    Hourly Weather Darwin

    Today, 28 March, Tuesday

    Time Temperature Precipitation Wind Pressure Humidity
    00:00 +28°C° 0.2 mm 3 mps 757 mmHg 91%
    01:00 +28°C° 0.6 mm 3 mps 757 mmHg 92%
    02:00 +28°C° 0.6 mm 3 mps 756 mmHg 92%
    03:00 +28°C° 0 mm 3 mps 756 mmHg 93%
    04:00 +28°C° 0 mm 3 mps 756 mmHg 93%
    05:00 +28°C° 0 mm 3 mps 756 mmHg 94%
    06:00 +28°C° 0 mm 3 mps 756 mmHg 94%
    07:00 +29°C° 0 mm 3 mps 757 mmHg 90%
    08:00 +30°C° 0 mm 3 mps 757 mmHg 85%
    09:00 +32°C° 0 mm 4 mps 757 mmHg 81%
    10:00 +34°C° 0 mm 4 mps 757 mmHg 75%
    11:00 +35°C° 0 mm 4 mps 756 mmHg 70%
    12:00 +36°C° 0 mm 4 mps 756 mmHg 65%
    13:00 +36°C° 0.2 mm 4 mps 755 mmHg 66%
    14:00 +35°C° 0.2 mm 4 mps 755 mmHg 67%
    15:00 +36°C° 0 mm 4 mps 755 mmHg 67%
    16:00 +35°C° 0.1 mm 4 mps 755 mmHg 71%
    17:00 +34°C° 0.1 mm 4 mps 755 mmHg 76%
    18:00 +33°C° 0.1 mm 4 mps 755 mmHg 81%
    19:00 +32°C° 0 mm 4 mps 755 mmHg 83%
    20:00 +30°C° 0 mm 4 mps 755 mmHg 86%
    21:00 +29°C° 0 mm 4 mps 756 mmHg 89%
    22:00 +29°C° 0 mm 4 mps 756 mmHg 90%
    23:00 +29°C° 0 mm 3 mps 756 mmHg 90%

    Tomorrow, 29 March, Wednesday

    Time Temperature Precipitation Wind Pressure Humidity
    00:00 +29°C° 0 mm 3 mps 756 mmHg 91%
    01:00 +29°C° 0.1 mm 3 mps 756 mmHg 91%
    02:00 +29°C° 0.1 mm 3 mps 756 mmHg 92%
    03:00 +28°C° 0.1 mm 3 mps 755 mmHg 92%
    04:00 +28°C° 0.1 mm 3 mps 755 mmHg 92%
    05:00 +28°C° 0.1 mm 3 mps 755 mmHg 92%
    06:00 +28°C° 0.1 mm 3 mps 755 mmHg 92%
    07:00 +30°C° 0 mm 3 mps 756 mmHg 87%
    08:00 +31°C° 0 mm 3 mps 756 mmHg 82%
    09:00 +33°C° 0 mm 4 mps 756 mmHg 77%
    10:00 +34°C° 0 mm 4 mps 756 mmHg 73%
    11:00 +35°C° 0 mm 4 mps 756 mmHg 68%
    12:00 +36°C° 0 mm 4 mps 756 mmHg 64%
    13:00 +36°C° 0.2 mm 5 mps 755 mmHg 65%
    14:00 +36°C° 0.2 mm 5 mps 755 mmHg 66%
    15:00 +36°C° 0.2 mm 5 mps 755 mmHg 67%
    16:00 +34°C° 1.4 mm 4 mps 755 mmHg 73%
    17:00 +33°C° 1.4 mm 4 mps 755 mmHg 80%
    18:00 +30°C° 1.4 mm 3 mps 756 mmHg 87%
    19:00 +30°C° 0.5 mm 3 mps 756 mmHg 88%
    20:00 +30°C° 0.5 mm 3 mps 756 mmHg 89%
    21:00 +29°C° 0.5 mm 3 mps 757 mmHg 90%
    22:00 +29°C° 0 mm 3 mps 757 mmHg 90%
    23:00 +29°C° 0 mm 3 mps 757 mmHg 90%

    Day after tomorrow, 30 March, Thursday

    Time Temperature Precipitation Wind Pressure Humidity
    00:00 +29°C° 0 mm 3 mps 757 mmHg 90%
    01:00 +29°C° 0 mm 3 mps 756 mmHg 90%
    02:00 +29°C° 0 mm 3 mps 756 mmHg 90%
    03:00 +29°C° 0 mm 4 mps 756 mmHg 90%
    04:00 +29°C° 0 mm 3 mps 756 mmHg 90%
    05:00 +29°C° 0 mm 3 mps 756 mmHg 91%
    06:00 +29°C° 0 mm 3 mps 756 mmHg 91%
    07:00 +30°C° 0.1 mm 3 mps 757 mmHg 86%
    08:00 +32°C° 0.1 mm 4 mps 757 mmHg 82%
    09:00 +33°C° 0.1 mm 4 mps 758 mmHg 77%
    10:00 +34°C° 0 mm 4 mps 757 mmHg 71%
    11:00 +35°C° 0 mm 5 mps 757 mmHg 66%
    12:00 +36°C° 0 mm 5 mps 757 mmHg 60%
    13:00 +36°C° 0.1 mm 5 mps 756 mmHg 62%
    14:00 +36°C° 0.1 mm 5 mps 755 mmHg 63%
    15:00 +35°C° 0.1 mm 5 mps 755 mmHg 65%
    16:00 +34°C° 0.2 mm 4 mps 755 mmHg 70%
    17:00 +33°C° 0.2 mm 4 mps 756 mmHg 74%
    18:00 +33°C° 0.2 mm 3 mps 756 mmHg 79%
    19:00 +31°C° 3.6 mm 3 mps 757 mmHg 83%
    20:00 +30°C° 3.6 mm 2 mps 758 mmHg 88%
    21:00 +29°C° 3.6 mm 2 mps 758 mmHg 92%
    22:00 +28°C° 0.3 mm 2 mps 758 mmHg 92%
    23:00 +28°C° 0.3 mm 2 mps 758 mmHg 92%

    31 March, Friday

    Time Temperature Precipitation Wind Pressure Humidity
    00:00 +28°C° 0.3 mm 2 mps 758 mmHg 91%
    01:00 +28°C° 0.2 mm 2 mps 758 mmHg 92%
    02:00 +28°C° 0.2 mm 2 mps 757 mmHg 92%
    03:00 +28°C° 0.2 mm 3 mps 756 mmHg 92%
    04:00 +27°C° 0 mm 3 mps 757 mmHg 91%
    05:00 +27°C° 0 mm 2 mps 757 mmHg 90%
    06:00 +27°C° 0 mm 2 mps 757 mmHg 89%
    07:00 +28°C° 0 mm 3 mps 757 mmHg 87%
    08:00 +29°C° 0 mm 3 mps 758 mmHg 84%
    09:00 +29°C° 0 mm 3 mps 758 mmHg 81%
    10:00 +30°C° 0 mm 3 mps 758 mmHg 77%
    11:00 +31°C° 0 mm 3 mps 757 mmHg 73%
    12:00 +33°C° 0 mm 3 mps 757 mmHg 68%
    13:00 +33°C° 0 mm 3 mps 756 mmHg 70%
    14:00 +33°C° 0 mm 3 mps 756 mmHg 71%
    15:00 +33°C° 0 mm 3 mps 755 mmHg 73%
    16:00 +33°C° 0.2 mm 3 mps 755 mmHg 76%
    17:00 +31°C° 0.2 mm 3 mps 755 mmHg 78%
    18:00 +30°C° 0.2 mm 4 mps 756 mmHg 81%
    19:00 +30°C° 1.1 mm 3 mps 756 mmHg 81%
    20:00 +30°C° 1.1 mm 3 mps 757 mmHg 80%
    21:00 +29°C° 1.1 mm 3 mps 757 mmHg 80%
    22:00 +29°C° 0.2 mm 3 mps 757 mmHg 78%
    23:00 +28°C° 0.2 mm 3 mps 757 mmHg 76%

    1 April, Saturday

    Time Temperature Precipitation Wind Pressure Humidity
    00:00 +28°C° 0.2 mm 3 mps 757 mmHg 74%
    01:00 +27°C° 0.1 mm 3 mps 756 mmHg 74%
    02:00 +27°C° 0.1 mm 3 mps 756 mmHg 74%
    03:00 +27°C° 0.1 mm 4 mps 756 mmHg 73%
    04:00 +26°C° 0.1 mm 4 mps 756 mmHg 75%
    05:00 +26°C° 0.1 mm 4 mps 756 mmHg 76%
    06:00 +26°C° 0.1 mm 4 mps 756 mmHg 77%
    07:00 +27°C° 0 mm 4 mps 757 mmHg 76%
    08:00 +28°C° 0 mm 4 mps 757 mmHg 76%
    09:00 +29°C° 0 mm 4 mps 758 mmHg 75%
    10:00 +30°C° 0.2 mm 5 mps 757 mmHg 70%
    11:00 +33°C° 0.2 mm 5 mps 757 mmHg 65%
    12:00 +34°C° 0.2 mm 5 mps 756 mmHg 60%
    13:00 +34°C° 0.7 mm 4 mps 756 mmHg 63%
    14:00 +34°C° 0.7 mm 4 mps 755 mmHg 66%
    15:00 +34°C° 0.7 mm 4 mps 755 mmHg 69%
    16:00 +31°C° 2.1 mm 3 mps 755 mmHg 75%
    17:00 +30°C° 2.1 mm 3 mps 755 mmHg 81%
    18:00 +29°C° 2.1 mm 3 mps 756 mmHg 87%
    19:00 +29°C° 2.2 mm 3 mps 756 mmHg 88%
    20:00 +28°C° 2.2 mm 3 mps 757 mmHg 88%
    21:00 +28°C° 2.2 mm 3 mps 757 mmHg 89%
    22:00 +28°C° 1.9 mm 4 mps 757 mmHg 89%
    23:00 +28°C° 1.9 mm 4 mps 757 mmHg 89%

    2 April, Sunday

    Time Temperature Precipitation Wind Pressure Humidity
    00:00 +27°C° 1.9 mm 4 mps 757 mmHg 90%
    01:00 +27°C° 1.4 mm 4 mps 756 mmHg 89%
    02:00 +27°C° 1.4 mm 4 mps 756 mmHg 89%
    03:00 +27°C° 1.4 mm 4 mps 756 mmHg 89%
    04:00 +26°C° 0.7 mm 4 mps 756 mmHg 88%
    05:00 +26°C° 0.7 mm 4 mps 756 mmHg 88%
    06:00 +26°C° 0.7 mm 4 mps 756 mmHg 88%
    07:00 +27°C° 0.6 mm 5 mps 757 mmHg 84%
    08:00 +29°C° 0.6 mm 5 mps 757 mmHg 79%
    09:00 +30°C° 0.6 mm 5 mps 757 mmHg 75%
    10:00 +32°C° 1.2 mm 5 mps 757 mmHg 71%
    11:00 +33°C° 1.2 mm 5 mps 757 mmHg 67%
    12:00 +34°C° 1.2 mm 6 mps 756 mmHg 63%
    13:00 +34°C° 0.8 mm 5 mps 756 mmHg 64%
    14:00 +34°C° 0.8 mm 5 mps 755 mmHg 65%
    15:00 +34°C° 0.8 mm 5 mps 755 mmHg 66%
    16:00 +33°C° 1.1 mm 4 mps 755 mmHg 72%
    17:00 +32°C° 1.1 mm 4 mps 756 mmHg 78%
    18:00 +30°C° 1.1 mm 4 mps 756 mmHg 84%
    19:00 +29°C° 1.9 mm 4 mps 757 mmHg 85%
    20:00 +29°C° 1.9 mm 4 mps 758 mmHg 87%
    21:00 +28°C° 1.9 mm 4 mps 758 mmHg 88%
    22:00 +28°C° 0.2 mm 3 mps 758 mmHg 88%
    23:00 +28°C° 0.2 mm 3 mps 758 mmHg 89%
    Show more